Location: South Tamworth Observatory
(43.8246°N, 71.3026°W)
Time: 11:55:25
(UTC-04:00)

Amateur Radio Satellites - All Passes

Search period start: 01 August 2014 11:25
Search period end: 02 August 2014 11:25
Location: South Tamworth Observatory, 43.8246°N, 71.3026°W

Satellite Date Start Highest point End Downlink Frequencies (MHz)
Time Altitude Azimuth
JAS-1B 01 Aug 11:34:29 11:36:50 11° 37° (NE) 11:39:11 435.800 - 435.900 CW/SSB
HO-68 01 Aug 11:52:01 11:57:21 23° 305° (NW) 12:02:41 435.675 MHz FM
FUNcube-1 01 Aug 11:52:39 11:56:36 41° 289° (WNW) 12:00:34 145.950 - 145.970 MHz USB
KITSAT 1 01 Aug 12:12:07 12:18:02 21° 27° (NNE) 12:23:56 435.175 FM
Uribyol 2 01 Aug 12:14:43 12:15:38 10° 55° (NE) 12:16:33 436.500 FM
AO-27 01 Aug 12:16:20 12:17:21 11° 55° (NE) 12:18:21 436.795 MHz FM
AO-Echo 01 Aug 12:23:40 12:25:58 13° 57° (ENE) 12:28:16 ?
Oscar 19 01 Aug 12:33:47 12:38:08 29° 65° (ENE) 12:42:32 437.125 CW, 437.150 USB
SO-50 01 Aug 12:33:55 12:38:15 49° 310° (NW) 12:42:43 436.795 FM
UOSAT-12 01 Aug 12:35:46 12:38:40 17° 110° (ESE) 12:41:36 437.025 FM, 437.400 FM
Gurwin Techsat 1B 01 Aug 12:59:06 13:00:30 11° 55° (NE) 13:01:55 435.225 FM
Oscar 16 01 Aug 13:02:05 13:07:03 54° 71° (ENE) 13:12:03 437.025 USB, Beacon 2401.1428
JAS-1B 01 Aug 13:16:07 13:24:29 39° 59° (ENE) 13:33:17 435.800 - 435.900 CW/SSB
RS-15 01 Aug 13:24:25 13:35:33 85° 122° (ESE) 13:46:31 29.354 - 29.394 USB, Beacon 29.352 USB
ITAMSAT 1 01 Aug 13:30:47 13:35:43 46° 69° (ENE) 13:40:41 435.822 SSB
Uribyol 2 01 Aug 13:49:00 13:54:10 70° 73° (ENE) 13:59:20 436.500 FM
AO-27 01 Aug 13:50:43 13:55:55 70° 73° (ENE) 14:01:07 436.795 MHz FM
Saudisat 1A 01 Aug 13:52:08 13:55:02 17° 37° (NE) 13:57:55 436.775 MHz
AO-Echo 01 Aug 13:58:35 14:03:55 82° 75° (ENE) 14:09:14 ?
KITSAT 1 01 Aug 14:07:14 14:15:15 62° 52° (NE) 14:23:13 435.175 FM
TMSAT-1 01 Aug 14:08:11 14:12:49 32° 66° (ENE) 14:17:27 436.925 FM
Oscar 19 01 Aug 14:12:39 14:17:22 37° 263° (W) 14:22:07 437.125 CW, 437.150 USB
UOSAT-12 01 Aug 14:13:43 14:18:18 64° 308° (NW) 14:22:59 437.025 FM, 437.400 FM
SO-50 01 Aug 14:18:32 14:19:58 11° 332° (NNW) 14:21:23 436.795 FM
Uosat F 01 Aug 14:25:07 14:26:22 11° 55° (NE) 14:27:37 435.120 FM
Gurwin Techsat 1B 01 Aug 14:34:15 14:39:31 72° 73° (ENE) 14:44:50 435.225 FM
AO-7 01 Aug 14:38:30 14:45:28 31° 55° (NE) 14:52:26 29.400 - 29.500 MHz
Oscar 16 01 Aug 14:43:06 14:46:44 20° 268° (W) 14:50:24 437.025 USB, Beacon 2401.1428
JAS-1B 01 Aug 15:05:18 15:14:21 64° 260° (W) 15:24:14 435.800 - 435.900 CW/SSB
ITAMSAT 1 01 Aug 15:11:15 15:15:25 24° 266° (W) 15:19:36 435.822 SSB
Saudisat 1A 01 Aug 15:30:46 15:35:13 84° 237° (WSW) 15:39:36 436.775 MHz
Uribyol 2 01 Aug 15:31:10 15:34:09 15° 270° (W) 15:37:09 436.500 FM
AO-27 01 Aug 15:32:54 15:35:56 16° 270° (W) 15:38:59 436.795 MHz FM
RS-15 01 Aug 15:39:21 15:49:15 37° 329° (NNW) 15:59:09 29.354 - 29.394 USB, Beacon 29.352 USB
AO-Echo 01 Aug 15:40:45 15:43:17 13° 272° (W) 15:45:50 ?
TMSAT-1 01 Aug 15:47:48 15:52:39 36° 263° (W) 15:57:31 436.925 FM
UOSAT-12 01 Aug 15:56:59 15:59:24 14° 329° (NNW) 16:01:51 437.025 FM, 437.400 FM
Uosat F 01 Aug 15:59:15 16:04:16 75° 74° (ENE) 16:09:20 435.120 FM
KITSAT 1 01 Aug 16:03:14 16:10:12 33° 252° (WSW) 16:17:08 435.175 FM
JAS-2 01 Aug 16:15:36 16:20:05 17° 56° (NE) 16:24:22 435.800 - 435.900 CW/SSB, 435.910 FM
Gurwin Techsat 1B 01 Aug 16:16:58 16:20:02 15° 271° (W) 16:23:07 435.225 FM
AO-7 01 Aug 16:29:18 16:37:38 70° 255° (WSW) 16:46:00 29.400 - 29.500 MHz
JAS-1B 01 Aug 17:02:19 17:06:48 14° 281° (W) 17:11:28 435.800 - 435.900 CW/SSB
OPAL 01 Aug 17:03:07 17:08:14 77° 106° (ESE) 17:13:23 ?
Hamsat 01 Aug 17:27:52 17:31:49 43° 72° (ENE) 17:35:49 145.90 MHz
Uosat F 01 Aug 17:41:08 17:43:37 14° 271° (W) 17:46:06 435.120 FM
JAS-2 01 Aug 17:56:29 18:04:11 77° 73° (ENE) 18:11:16 435.800 - 435.900 CW/SSB, 435.910 FM
RS-15 01 Aug 17:57:25 18:05:55 25° 3° (N) 18:14:30 29.354 - 29.394 USB, Beacon 29.352 USB
SO-67 01 Aug 18:24:23 18:27:14 24° 70° (ENE) 18:30:06 435.3500 MHz FM
AO-7 01 Aug 18:28:14 18:31:53 13° 274° (W) 18:35:32 29.400 - 29.500 MHz
OPAL 01 Aug 18:43:29 18:46:32 16° 303° (WNW) 18:49:36 ?
HO-68 01 Aug 18:49:38 18:53:20 15° 49° (NE) 18:57:02 435.675 MHz FM
Hamsat 01 Aug 19:05:16 19:08:01 17° 269° (W) 19:10:48 145.90 MHz
SO-50 01 Aug 19:23:49 19:28:06 32° 45° (NE) 19:32:25 436.795 FM
STRAND 1 01 Aug 19:32:49 19:37:55 69° 102° (ESE) 19:42:59 ?
JAS-2 01 Aug 19:43:56 19:49:42 23° 269° (W) 19:55:11 435.800 - 435.900 CW/SSB, 435.910 FM
SO-67 01 Aug 19:57:38 20:00:16 20° 266° (W) 20:02:56 435.3500 MHz FM
UKube-1 01 Aug 20:02:00 20:04:51 17° 63° (ENE) 20:07:41 145.840 MHz, 145.915 MHz
MaSat-1 01 Aug 20:10:01 20:14:01 45° 110° (ESE) 20:18:36 437.345 MHz
RS-15 01 Aug 20:11:56 20:22:14 42° 37° (NE) 20:32:45 29.354 - 29.394 USB, Beacon 29.352 USB
HO-68 01 Aug 20:32:40 20:39:45 67° 69° (ENE) 20:46:51 435.675 MHz FM
Oscar 11 01 Aug 20:42:11 20:45:28 22° 66° (ENE) 20:48:46 145.825 FM, Beacon 2401.500 USB
UOSAT-12 01 Aug 21:02:28 21:06:27 26° 42° (NE) 21:10:24 437.025 FM, 437.400 FM
SO-50 01 Aug 21:04:19 21:08:43 38° 243° (WSW) 21:13:10 436.795 FM
STRAND 1 01 Aug 21:13:20 21:16:33 17° 300° (WNW) 21:19:46 ?
FUNcube-1 01 Aug 21:15:25 21:18:20 18° 65° (ENE) 21:21:14 145.950 - 145.970 MHz USB
ISS 01 Aug 21:17:55 21:19:57 15° 133° (SE) 21:22:00 145.800 FM
UKube-1 01 Aug 21:36:25 21:40:40 51° 260° (W) 21:44:57 145.840 MHz, 145.915 MHz
MaSat-1 01 Aug 21:47:56 21:51:35 24° 312° (NW) 21:55:37 437.345 MHz
Oscar 11 01 Aug 22:17:27 22:21:26 37° 263° (W) 22:25:27 145.825 FM, Beacon 2401.500 USB
HO-68 01 Aug 22:22:22 22:27:59 25° 267° (W) 22:33:39 435.675 MHz FM
RS-15 01 Aug 22:24:28 22:35:25 72° 242° (WSW) 22:46:46 29.354 - 29.394 USB, Beacon 29.352 USB
UOSAT-12 01 Aug 22:42:17 22:46:52 51° 241° (WSW) 22:51:23 437.025 FM, 437.400 FM
Sapphire 01 Aug 22:46:32 22:49:47 16° 104° (ESE) 22:53:02 437.095 MHz 1200 baud AX-25 AFSK
FUNcube-1 01 Aug 22:50:23 22:54:27 43° 261° (W) 22:58:29 145.950 - 145.970 MHz USB
ISS 01 Aug 22:52:57 22:56:17 76° 329° (NNW) 22:59:39 145.800 FM
PCSat 01 Aug 23:17:38 23:22:24 33° 110° (ESE) 23:27:12 145.825 MHz
Sapphire 02 Aug 00:27:09 00:32:33 75° 302° (WNW) 00:37:59 437.095 MHz 1200 baud AX-25 AFSK
ISS 02 Aug 00:30:36 00:33:24 24° 349° (NNW) 00:36:13 145.800 FM
RS-15 02 Aug 00:39:44 00:45:42 16° 263° (W) 00:51:49 29.354 - 29.394 USB, Beacon 29.352 USB
AO-40 02 Aug 00:47:37 03:41:54 23° 129° (SE) 05:01:03 Beacon 2401.320
Oscar 10/S400 02 Aug 00:51:38 01:26:52 60° 185° (S) 10:08:13 145.825 - 145.975 CW/USB, Beacon 145.810 USB
PCSat 02 Aug 01:00:38 01:05:43 40° 309° (NW) 01:10:50 145.825 MHz
Oscar 16 02 Aug 01:13:29 01:16:51 17° 91° (E) 01:20:12 437.025 USB, Beacon 2401.1428
ITAMSAT 1 02 Aug 01:43:52 01:46:33 14° 89° (E) 01:49:14 435.822 SSB
Uribyol 2 02 Aug 02:01:11 02:05:09 22° 93° (E) 02:09:07 436.500 FM
AO-27 02 Aug 02:03:13 02:07:13 22° 93° (E) 02:11:12 436.795 MHz FM
AO-Echo 02 Aug 02:05:36 02:09:36 24° 93° (E) 02:13:28 ?
ISS 02 Aug 02:08:08 02:10:53 23° 9° (N) 02:13:38 145.800 FM
Sapphire 02 Aug 02:13:36 02:16:56 16° 323° (NW) 02:20:16 437.095 MHz 1200 baud AX-25 AFSK
Oscar 19 02 Aug 02:22:15 02:27:26 71° 102° (ESE) 02:32:36 437.125 CW, 437.150 USB
TMSAT-1 02 Aug 02:25:32 02:26:15 10° 86° (E) 02:26:57 436.925 FM
OPAL 02 Aug 02:42:28 02:46:11 22° 60° (ENE) 02:49:54 ?
Gurwin Techsat 1B 02 Aug 02:49:41 02:54:05 26° 94° (E) 02:58:26 435.225 FM
PCSat 02 Aug 02:49:50 02:50:42 10° 332° (NNW) 02:51:35 145.825 MHz
JAS-1B 02 Aug 02:51:08 02:59:55 47° 95° (E) 03:07:21 435.800 - 435.900 CW/SSB
Oscar 16 02 Aug 02:51:31 02:56:37 62° 288° (WNW) 03:01:43 437.025 USB, Beacon 2401.1428
ITAMSAT 1 02 Aug 03:21:26 03:26:37 75° 287° (WNW) 03:31:45 435.822 SSB
Uribyol 2 02 Aug 03:39:55 03:44:53 48° 290° (WNW) 03:49:49 436.500 FM
AO-27 02 Aug 03:42:00 03:46:59 48° 290° (WNW) 03:51:56 436.795 MHz FM
AO-Echo 02 Aug 03:43:50 03:48:33 42° 291° (WNW) 03:53:07 ?
ISS 02 Aug 03:44:43 03:48:04 62° 28° (NNE) 03:51:24 145.800 FM
TMSAT-1 02 Aug 04:01:38 04:06:58 83° 104° (ESE) 04:12:15 436.925 FM
Oscar 19 02 Aug 04:02:58 04:06:13 17° 300° (WNW) 04:09:28 437.125 CW, 437.150 USB
Uosat F 02 Aug 04:06:32 04:10:15 21° 93° (E) 04:13:56 435.120 FM
OPAL 02 Aug 04:19:55 04:24:43 51° 258° (WSW) 04:29:34 ?
MaSat-1 02 Aug 04:27:04 04:31:14 23° 47° (NE) 04:35:15 437.345 MHz
Gurwin Techsat 1B 02 Aug 04:29:12 04:34:13 43° 291° (WNW) 04:39:12 435.225 FM
AO-7 02 Aug 04:29:38 04:37:16 38° 98° (E) 04:44:47 29.400 - 29.500 MHz
KITSAT 1 02 Aug 04:37:39 04:44:40 34° 108° (ESE) 04:51:41 435.175 FM
JAS-1B 02 Aug 04:41:41 04:50:20 45° 298° (WNW) 04:57:48 435.800 - 435.900 CW/SSB
ITAMSAT 1 02 Aug 05:03:47 05:05:12 11° 305° (NW) 05:06:38 435.822 SSB
STRAND 1 02 Aug 05:13:32 05:16:38 16° 59° (ENE) 05:19:45 ?
ISS 02 Aug 05:22:01 05:24:30 19° 226° (SW) 05:26:59 145.800 FM
Saudisat 1A 02 Aug 05:39:49 05:42:50 18° 111° (ESE) 05:45:51 436.775 MHz
TMSAT-1 02 Aug 05:43:16 05:46:12 15° 302° (WNW) 05:49:07 436.925 FM
Uosat F 02 Aug 05:44:28 05:49:19 50° 290° (WNW) 05:54:07 435.120 FM
MaSat-1 02 Aug 06:03:48 06:09:02 64° 247° (WSW) 06:13:54 437.345 MHz
AO-7 02 Aug 06:22:16 06:30:15 53° 297° (WNW) 06:38:11 29.400 - 29.500 MHz
KITSAT 1 02 Aug 06:31:38 06:39:38 61° 308° (NW) 06:47:40 435.175 FM
JAS-1B 02 Aug 06:35:02 06:38:15 12° 321° (NW) 06:41:22 435.800 - 435.900 CW/SSB
Hamsat 02 Aug 06:47:44 06:52:04 77° 102° (ESE) 06:56:25 145.90 MHz
STRAND 1 02 Aug 06:50:06 06:55:14 73° 257° (WSW) 07:00:23 ?
JAS-2 02 Aug 06:50:53 06:56:35 56° 100° (E) 07:01:45 435.800 - 435.900 CW/SSB, 435.910 FM
Saudisat 1A 02 Aug 07:17:41 07:22:01 54° 309° (NW) 07:26:23 436.775 MHz
SO-67 02 Aug 07:19:40 07:22:33 24° 95° (E) 07:25:25 435.3500 MHz FM
Sapphire 02 Aug 07:31:07 07:35:21 22° 42° (NE) 07:39:34 437.095 MHz 1200 baud AX-25 AFSK
PCSat 02 Aug 08:03:40 08:08:44 38° 50° (NE) 08:13:46 145.825 MHz
AO-7 02 Aug 08:17:29 08:21:10 14° 319° (NW) 08:24:50 29.400 - 29.500 MHz
Hamsat 02 Aug 08:25:51 08:27:26 12° 299° (WNW) 08:29:02 145.90 MHz
KITSAT 1 02 Aug 08:30:57 08:36:52 21° 333° (NNW) 08:42:47 435.175 FM
JAS-2 02 Aug 08:36:52 08:41:10 22° 301° (WNW) 08:45:12 435.800 - 435.900 CW/SSB, 435.910 FM
SO-67 02 Aug 08:52:51 08:55:31 21° 291° (WNW) 08:58:10 435.3500 MHz FM
Saudisat 1A 02 Aug 09:01:05 09:02:36 12° 330° (NNW) 09:04:08 436.775 MHz
Sapphire 02 Aug 09:13:54 09:19:20 71° 242° (WSW) 09:24:42 437.095 MHz 1200 baud AX-25 AFSK
UKube-1 02 Aug 09:23:50 09:27:21 24° 95° (E) 09:30:51 145.840 MHz, 145.915 MHz
HO-68 02 Aug 09:46:22 09:53:27 61° 103° (ESE) 10:00:29 435.675 MHz FM
PCSat 02 Aug 09:47:12 09:52:07 36° 249° (WSW) 09:56:59 145.825 MHz
Oscar 11 02 Aug 10:03:32 10:07:31 34° 97° (E) 10:11:29 145.825 FM, Beacon 2401.500 USB
KITSAT 1 02 Aug 10:31:53 10:36:00 14° 4° (N) 10:40:08 435.175 FM
FUNcube-1 02 Aug 10:38:06 10:41:48 30° 96° (E) 10:45:33 145.950 - 145.970 MHz USB
RS-15 02 Aug 10:44:12 10:49:29 15° 96° (E) 10:54:43 29.354 - 29.394 USB, Beacon 29.352 USB
UKube-1 02 Aug 10:59:42 11:03:37 34° 292° (WNW) 11:07:31 145.840 MHz, 145.915 MHz
